Regional Weather Roundup
Issued by NWS

Home | Current Version | Previous Version | Text Only | Print | Product List | Glossary On
Versions: 1 2 3 4 5 6 7 8 9 10 11 12 13 14 15 16 17 18 19 20 21 22 23 24 25 26 27 28 29 30 31 32 33 34 35 36 37 38 39 40 41 42 43 44 45 46 47 48 49 50
000
ASUS43 KBIS 301820
RWRND

NORTH DAKOTA REGIONAL WEATHER ROUNDUP
NATIONAL WEATHER SERVICE BISMARCK ND
100 PM CDT TUE SEP 30 2014

NOTE: "FAIR" INDICATES FEW OR NO CLOUDS BELOW 12,000 FEET WITH NO
SIGNIFICANT WEATHER AND/OR OBSTRUCTIONS TO VISIBILITY.


NDZ001>003-009>011-017-301900-
NORTHWEST NORTH DAKOTA

CITY           SKY/WX    TMP DP  RH WIND       PRES   REMARKS
WILLISTON      RAIN      55  53  93 E6        29.60F FOG
6HR MIN TEMP:  52; 6HR MAX TEMP:  56; 6HR PCP:  0.35;

MINOT          LGT RAIN  49  46  90 E18       29.66F
MINOT AFB      CLOUDY    50  50  99 E17       29.65F
$$

NDZ018>021-031>035-040>046-301900-
SOUTHWEST NORTH DAKOTA

CITY           SKY/WX    TMP DP  RH WIND       PRES   REMARKS
BISMARCK       CLOUDY    53  51  93 E15       29.61F
6HR MIN TEMP:  52; 6HR MAX TEMP:  54; 6HR PCP:  0.02;

DICKINSON      FOG       52  51  97 E15       29.55F VSB 1
GARRISON         N/A     51  50  96 E13       29.64F
6HR MIN TEMP:  51; 6HR MAX TEMP:  53; 6HR PCP:  0.07;

HETTINGER ARPT LGT RAIN  52  51  97 E16       29.52F VSB 1
$$

NDZ004>008-012>016-024-026-027-054-301900-
NORTHEAST NORTH DAKOTA

CITY           SKY/WX    TMP DP  RH WIND       PRES   REMARKS
GRAND FORKS    PTSUNNY   57  44  62 SE18G28   29.84F
GRND FRKS AFB  MOSUNNY   55  47  73 SE16G25   29.84F
DEVILS LAKE    CLOUDY    48  41  76 SE20G32   29.74F
$$

NDZ022-023-025-028>030-036>039-047>053-301900-
SOUTHEAST NORTH DAKOTA

CITY           SKY/WX    TMP DP  RH WIND       PRES   REMARKS
FARGO          PTSUNNY   58  43  57 SE20G26   29.82F
6HR MIN TEMP:  45; 6HR MAX TEMP:  58;

JAMESTOWN      CLOUDY    50  46  86 E18G26    29.72F
$$




USA.gov is the U.S. government's official web portal to all federal, state and local government web resources and services.